Back to catalog

HULIANWANG DIGUI-97

AliveCommunicationsLEO
NORAD 66413·PAYLOAD·🇨🇳 China

Launched Nov 10, 2025 from Wenchang Space Launch Site

Loading…

Next Passes (next 24 hours)

TLE

FreshSource: Space-Track

Epoch: Sep 14, 2026, 11:26 UTC

1 66413U 25258B   26257.47678061 -.00000085  00000-0  84916-4 0  9999
2 66413  50.0032 335.6084 0000201  94.8442 265.2453 13.29330070 41601

Track HULIANWANG DIGUI-97 in real time with AllMySat

Download on the App Store